Philip, SD

4:10 AM MDT on August 25, 2016 (GMT -0600)
Philip

Weather History for KPHP - September, 2012

Change the Weather History Date:

Saturday, September 22, 2012

  Actual Average Record
Temperature  
Mean Temperature 49 °F 59 °F  
Max Temperature 65 °F 75 °F 98 °F (2013)
Min Temperature 33 °F 44 °F 25 °F (1983)
Degree Days  
Heating Degree Days 16 7  
Month to date heating degree days 59 92  
Since 1 July heating degree days 64 117  
Cooling Degree Days 0 1  
Month to date cooling degree days 89 72  
Year to date cooling degree days 1200 807  
Moisture  
Dew Point 26 °F    
Average Humidity 49    
Maximum Humidity 75    
Minimum Humidity 23    
Precipitation  
Precipitation 0.00 in 0.05 in 0.83 in (2006)
Month to date precipitation T 1.10  
Year to date precipitation 5.99 14.48  
Sea Level Pressure  
Sea Level Pressure 30.27 in    
Wind  
Wind Speed 8 mph (East)    
Max Wind Speed 16 mph    
Max Gust Speed 20 mph    
Visibility 10 miles    
Events      
T = Trace of Precipitation, MM = Missing Value Source: NWS Daily Summary

Daily Weather History Graph

Daily Weather History Graph

Search for Another Location

Airport or City:

Trip Planner

Search our weather history database for the weather conditions in past years. The results will help you decide how hot, cold, wet, or windy it might be!

Date:

Astronomy

Sep. 22, 2012 Rise Set
Actual Time 6:34 AM MDT 6:42 PM MDT
Civil Twilight 6:05 AM MDT 7:11 PM MDT
Nautical Twilight 5:31 AM MDT 7:45 PM MDT
Astronomical Twilight 4:56 AM MDT 8:19 PM MDT
Moon 2:06 PM MDT (9/22) 11:37 PM MDT (9/22)
Length of Visible Light 13h 06m
Length of Day
12h 08m
Waxing Crescent, 49% of the Moon is Illuminated
Sep 22
Waxing Crescent
Sep 22
First Quarter
Sep 29
Full
Oct 8
Last Quarter
Oct 15
New

Hourly Weather History & Observations

Time (MDT) Temp. Windchill Dew Point Humidity Pressure Visibility Wind Dir Wind Speed Gust Speed Precip Events Conditions
12:55 AM 46.9 °F - 26.1 °F 44% 30.15 in 10.0 mi West 5.8 mph - N/A   Clear
1:55 AM 46.0 °F - 26.1 °F 46% 30.18 in 10.0 mi Calm Calm - N/A   Clear
2:55 AM 43.0 °F 37.2 °F 28.0 °F 56% 30.21 in 10.0 mi East 10.4 mph - N/A   Clear
3:55 AM 37.9 °F 33.5 °F 28.0 °F 68% 30.25 in 10.0 mi East 5.8 mph - N/A   Clear
4:55 AM 36.0 °F 30.3 °F 28.9 °F 76% 30.27 in 10.0 mi ENE 6.9 mph - N/A   Clear
5:55 AM 33.1 °F 27.7 °F 27.0 °F 78% 30.29 in 10.0 mi ENE 5.8 mph - N/A   Clear
6:55 AM 33.1 °F 28.7 °F 27.0 °F 78% 30.31 in 10.0 mi East 4.6 mph - N/A   Clear
7:55 AM 39.0 °F 32.8 °F 30.0 °F 70% 30.33 in 10.0 mi East 9.2 mph - N/A   Clear
8:55 AM 44.1 °F 38.1 °F 28.0 °F 53% 30.34 in 10.0 mi East 11.5 mph - N/A   Clear
9:55 AM 46.9 °F - 27.0 °F 46% 30.34 in 10.0 mi East 10.4 mph - N/A   Clear
10:55 AM 51.1 °F - 25.0 °F 36% 30.32 in 10.0 mi ESE 9.2 mph - N/A   Clear
11:55 AM 57.0 °F - 26.1 °F 30% 30.30 in 10.0 mi East 10.4 mph - N/A   Clear
12:55 PM 59.0 °F - 25.0 °F 27% 30.28 in 10.0 mi ESE 10.4 mph 16.1 mph N/A   Clear
1:55 PM 62.1 °F - 25.0 °F 24% 30.26 in 10.0 mi East 9.2 mph - N/A   Clear
2:55 PM 63.0 °F - 26.1 °F 25% 30.25 in 10.0 mi East 11.5 mph - N/A   Clear
3:55 PM 64.0 °F - 26.1 °F 24% 30.23 in 10.0 mi East 10.4 mph 19.6 mph N/A   Clear
4:55 PM 64.0 °F - 26.1 °F 24% 30.23 in 10.0 mi East 12.7 mph - N/A   Clear
5:55 PM 62.1 °F - 26.1 °F 25% 30.23 in 10.0 mi East 11.5 mph - N/A   Clear
6:55 PM 55.0 °F - 25.0 °F 31% 30.24 in 10.0 mi ENE 9.2 mph - N/A   Clear
7:55 PM 50.0 °F - 25.0 °F 38% 30.25 in 10.0 mi East 8.1 mph - N/A   Clear
8:55 PM 45.0 °F 42.6 °F 24.1 °F 44% 30.27 in 10.0 mi East 4.6 mph - N/A   Clear
9:55 PM 43.0 °F 40.3 °F 24.1 °F 47% 30.28 in 10.0 mi East 4.6 mph - N/A   Clear
10:55 PM 42.1 °F 40.2 °F 24.1 °F 49% 30.28 in 10.0 mi East 3.5 mph - N/A   Clear
11:55 PM 41.0 °F 38.0 °F 24.1 °F 51% 30.27 in 10.0 mi East 4.6 mph - N/A   Clear